Regional Weather Roundup
Issued by NWS

Home | Current Version | Previous Version | Text Only | Print | Product List | Glossary Off
Versions: 1 2 3 4 5 6 7 8 9 10 11 12 13 14 15 16 17 18 19 20 21 22 23 24 25 26 27 28 29 30 31 32 33 34 35 36 37 38 39 40 41 42 43 44 45 46 47 48 49 50

000
ASUS43 KMPX 280510
RWRMN
WEATHER ROUNDUP FOR MINNESOTA
NATIONAL WEATHER SERVICE TWIN CITIES/CHANHASSEN MN
1200 AM CDT TUE MAR 28 2017


NOTE: "FAIR" INDICATES FEW OR NO CLOUDS BELOW 12,000 FEET WITH NO
SIGNIFICANT WEATHER AND/OR OBSTRUCTIONS TO VISIBILITY. N/A MEANS
CURRENT SKY AND/OR WEATHER CONDITIONS ARE NOT AVAILABLE.

MNZ060>063-068>070-280600-
   Twin Cities Metro

CITY           SKY/WX    TMP DP  RH WIND       PRES   REMARKS
TWIN CITIES    PTCLDY    44  35  70 CALM      30.02S
ST PAUL        PTCLDY    39  37  92 S3        30.03S
CRYSTAL        CLOUDY    38  31  76 CALM      30.01S
BLAINE         PTCLDY    43  34  70 N3        30.02S
LAKEVILLE      PTCLDY    32  32 100 CALM      30.02S
EDEN PRAIRIE   CLEAR     42  35  76 CALM      30.02R
SOUTH ST PAUL  CLOUDY    38  35  89 CALM      30.02S
LAKE ELMO      FAIR      36  34  93 CALM      30.03S
$$
MNZ001>005-007-008-013>017-022>024-027-028-280600-
   Northwest Minnesota

CITY           SKY/WX    TMP DP  RH WIND       PRES   REMARKS
BEMIDJI        CLEAR     32  26  80 N3        30.04R
HALLOCK        CLOUDY    34  32  93 N8        30.09S WCI  27
ROSEAU         CLOUDY    37  32  81 CALM      30.08R
WARROAD        PTCLDY    39  32  75 N5        30.08R
THIEF RVR FALL CLOUDY   N/A N/A N/A NW6       30.08R
CROOKSTON      FOG       36  36 100 N9        30.08S VSB 3/4
FOSSTON        CLOUDY    34  32  93 N3        30.07R
DETROIT LAKES  CLEAR     37  36  93 NW3       30.05R FOG
MOORHEAD       FOG       36  36 100 N8        30.07R VSB 1/4
PARK RAPIDS    CLEAR     32  24  72 W5        30.04R WCI  27
MAHNOMEN       MOCLDY    35  34  99 N5        30.05R WCI  30
$$
MNZ006-009>011-018-025>026-280600-
   North Central Minnesota

CITY           SKY/WX    TMP DP  RH WIND       PRES   REMARKS
BAUDETTE       CLOUDY    38  29  70 N7        30.05R
FLAG ISLAND    CLEAR     39  30  70 NW5       30.07R
INTL FALLS     CLOUDY    42  26  53 NE5       30.04R
WASKISH        CLOUDY    39  30  70 CALM      30.05R
BIG FORK       CLEAR     30  25  80 CALM      30.02S
LONGVILLE      CLEAR     28  27  93 CALM      30.03R FOG
CRANE LAKE     PTCLDY    27  25  93 CALM      30.05S
ORR            CLEAR     30  25  80 CALM      30.01S
COOK           CLEAR     28  25  86 CALM      30.04R
WALKER         FAIR      30  24  79 W3        30.03R
$$
MNZ012-019>021-037-280600-
   Northeast Minnesota

CITY           SKY/WX    TMP DP  RH WIND       PRES   REMARKS
DULUTH         CLEAR     33  29  85 CALM      30.03R
ELY            CLEAR     28  23  80 CALM      30.04R
HIBBING        CLEAR     27  25  92 CALM      30.02R
EVELETH        CLEAR     30  27  87 CALM      30.04S
DULUTH HARBOR  CLEAR     32  30  93 CALM      30.06R
TWO HARBORS    CLEAR     32  28  86 CALM      30.02S
SILVER BAY     CLEAR     28  27  93 CALM      30.03R
GRAND MARAIS     N/A     30  28  92 CALM      30.04S
G MARAIS ARPRT CLEAR     28  25  86 W5        30.02S WCI  23
$$
MNZ029>031-032-039>041-046>048-054>057-064-280600-
   West Central Minnesota

CITY           SKY/WX    TMP DP  RH WIND       PRES   REMARKS
FERGUS FALLS   PTCLDY    39  36  87 NE6       30.07R
WHEATON        CLOUDY    37  34  87 CALM      30.06R
MORRIS         PTCLDY    41  34  75 CALM      30.03R
ALEXANDRIA     CLOUDY    39  33  79 CALM      30.04R
ELBOW LAKE     FAIR      39  35  86 CALM      30.04R
WADENA         PTCLDY    34  30  86 CALM      30.03R
GLENWOOD       PTCLDY    43  36  75 SE3       30.04R
APPLETON       PTCLDY    37  34  87 CALM      30.03R
BENSON         PTCLDY    39  30  70 CALM      30.05S
MADISON        PTCLDY    43  37  81 N3        30.03R
WILLMAR        FAIR      41  36  81 CALM      30.04S
$$
MNZ033>034-036-042>043-049>051-058-059-280600-
   Central Minnesota

CITY           SKY/WX    TMP DP  RH WIND       PRES   REMARKS
ST CLOUD       CLOUDY    33  32  96 CALM      30.03R
SAUK CENTRE    FAIR      33  31  94 CALM      30.04R
PAYNESVILLE      N/A     33  33 100 CALM      30.04R
AITKIN         CLEAR     30  25  80 CALM      30.03R
PINE RIVER     CLEAR     30  27  86 N3        30.06R
BRAINERD       CLEAR     30  27  88 CALM      30.03R
STAPLES        PTCLDY    34  28  80 CALM      30.03R
LONG PRAIRIE   FAIR      34  32  93 CALM      30.04R
LITTLE FALLS   CLEAR     32  30  93 CALM      30.04R
LITCHFIELD     PTCLDY    41  37  87 CALM      30.04R
BUFFALO        CLOUDY    37  33  84 CALM      30.04R
MAPLE LAKE     CLOUDY    37  36  95 CALM      30.04R
HUTCHINSON     CLOUDY    37  35  92 CALM      30.04R
$$
MNZ037-044-045-052-053-280600-
   East Central Minnesota

CITY           SKY/WX    TMP DP  RH WIND       PRES   REMARKS
PRINCETON      PTCLDY    36  32  87 CALM      30.04R
MORA           CLEAR     32  30  93 CALM      30.06R
CAMBRIDGE      CLEAR     37  30  75 CALM      30.02R
RUSH CITY      CLEAR     39  31  73 CALM      30.04R
MOOSE LAKE     CLEAR     32  30  93 CALM      30.03R
CLOQUET        CLEAR     28  27  93 CALM      30.03R
MCGREGOR       CLEAR     32  30  93 CALM      30.04R
$$
MNZ071>073-080-081-089-090-097-098-280600-
   Southwest Minnesota

CITY           SKY/WX    TMP DP  RH WIND       PRES   REMARKS
MONTEVIDEO     CLOUDY    41  34  75 CALM      30.05R
GRANITE FALLS  PTCLDY    42  35  75 CALM      30.04R
CANBY          PTCLDY    38  36  91 CALM      30.04R
MARSHALL       PTCLDY    39  35  86 W5        30.03R
REDWOOD FALLS  PTCLDY    45  33  63 NE3       30.02S
OLIVIA         CLOUDY    41  32  70 NE3       30.02S
PIPESTONE      CLOUDY    43  36  75 CALM      30.02R
WINDOM         CLEAR     36  36 100 W3        30.03R
WORTHINGTON    CLEAR     38  35  89 SW5       30.03R
JACKSON        CLEAR     37  36  93 CALM      30.03R
TRACY          MOCLDY    43  38  83 SW3       30.02R
SLAYTON        PTCLDY    37  35  92 SW3       30.03R
$$
MNZ065>067-074>077-082>085-091>093-280600-
   South Central Minnesota

CITY           SKY/WX    TMP DP  RH WIND       PRES   REMARKS
MANKATO        CLEAR     39  37  92 E5        30.03R
NEW ULM        MOCLDY    43  34  70 CALM      30.02R
ST JAMES       PTCLDY    39  37  93 CALM      30.03R
FAIRMONT       CLEAR     37  36  96 W3        30.03R
GLENCOE        PTCLDY    38  35  90 CALM      30.02R
FARIBAULT      PTCLDY    36  34  93 CALM      30.03R
OWATONNA       CLEAR     36  34  93 CALM      30.02S
WASECA         CLOUDY    36  34  93 CALM      30.04R
ALBERT LEA     CLOUDY    36  36 100 CALM      30.01S FOG
$$
MNZ078>079-086>088-094>096-280600-
   Southeast Minnesota

CITY           SKY/WX    TMP DP  RH WIND       PRES   REMARKS
ROCHESTER      CLEAR     39  38  96 NE3       30.02R
RED WING       CLEAR     34  32  93 CALM      30.03R
STANTON        CLEAR     33  31  93 S3        30.01S
DODGE CENTER   CLEAR     36  36 100 CALM      30.02S FOG
WINONA         PTCLDY    36  36 100 NW3       30.04R
AUSTIN         CLEAR     37  36  93 CALM      30.01S
PRESTON        MOCLDY    38  36  92 CALM      30.02R
$$
ABBREVIATIONS USED IN REMARKS
   TC - TEMPERATURES IN CELSIUS
  WCI - WIND CHILL INDEX
   HX - HEAT INDEX
  VSB - VISIBILITY
$$



USA.gov is the U.S. government's official web portal to all federal, state and local government web resources and services.